User: anonymous   Login
Location: Caltech
(34.1382°N, 118.1253°W)
Time: 10:18:04
(UTC-08:00)
Language:

Cosmos 1758 Rocket - Orbit

View from above orbital plane
View from above orbital plane
View from above satellite
View from above satellite

Ground track
Ground track

The orbit data is extracted from the following two-line orbital elements,

1 16792U 86046B   15024.23672604  .00000288  00000-0  32590-4 0  6865
2 16792 082.4848 305.5244 0022810 294.3489 226.1485 14.82791957545203
Epoch (UTC): 24 January 2015 05:40:53
Eccentricity: 0.0022810
inclination: 82.4848°
perigee height: 604 km
apogee height: 636 km
right ascension of ascending node: 305.5244°
argument of perigee: 294.3489°
revolutions per day: 14.82791957
mean anomaly at epoch: 226.1485°
orbit number at epoch: 54520

The dashed part of the orbit path shows where the satellite is in the earth's shadow,  

DLR